Temp
23 22 21 21 21 21 21 21 21 22 22 22 22 22 22 22 22 21 21 20 20 20 20 20 20 20 20 20 20 20 19 20 19 19 19 19 19 19 20 20 20 20 19 19 19 19 19 19 19 19 19 19 19 18 18 18 18 18 18 18 18 18 18 18 17 17 17 17 17 17 17 17 17 17 16 16 17 17 17 17 18 18 18 17 17
23 21 21 21 21 21 21 21 21 22 22 22 22 22 22 22 22 22 21 20 20 20 20 20 20 20 20 20 20 19 19 20 19 19 20 19 19 19 19 19 19 19 19 19 19 19 19 19 19 19 19 19 19 18 18 18 18 18 18 18 18 18 17 17 17 17 17 17 17 17 17 17 17 16 16 16 16 17 17 17 18 18 17 17 17
23 21 21 21 21 20 21 21 21 21 21 22 22 22 22 22 22 22 21 21 20 20 20 20 20 20 20 20 20 19 19 19 19 20 20 20 20 20 20 19 19 19 19 19 19 19 19 19 19 19 19 19 19 18 18 18 18 18 18 18 18 17 17 17 17 17 17 17 17 17 17 16 16 16 16 16 16 16 17 17 17 18 17 17 17
22 21 21 21 20 20 21 21 21 21 21 22 22 22 22 22 22 22 22 21 21 20 20 20 20 20 20 20 19 19 19 19 20 20 20 20 20 20 20 20 19 19 19 19 19 19 19 19 19 19 19 19 18 18 18 18 18 18 18 17 17 17 17 17 17 17 17 17 17 17 18 17 17 16 16 16 16 16 16 16 16 17 16 17 17
22 21 21 21 20 20 20 21 21 21 21 21 21 21 21 21 22 21 22 21 21 20 20 20 20 20 20 19 19 19 19 19 20 20 20 20 20 19 19 19 19 19 19 19 19 19 19 19 19 19 19 19 18 18 18 18 18 17 17 17 17 17 17 17 17 17 17 17 18 19 19 19 17 16 16 16 16 16 16 16 16 16 16 16 17
22 21 21 20 20 20 20 21 21 21 21 21 21 21 21 21 21 21 21 21 21 21 20 20 20 19 19 19 19 19 20 20 20 20 20 20 19 19 19 18 18 18 19 19 19 19 19 19 19 19 19 19 18 18 18 18 18 18 17 17 17 17 17 17 17 17 17 18 19 20 20 19 18 17 16 16 16 16 16 16 16 16 16 17 17
22 21 21 20 20 20 20 20 21 21 21 21 21 21 21 21 21 21 21 21 21 21 20 20 20 19 19 19 19 20 20 20 20 20 20 19 19 18 18 18 18 18 18 18 19 19 19 19 19 19 19 19 18 18 18 18 18 18 17 18 17 17 16 17 17 17 18 19 20 20 20 20 19 18 16 16 16 16 16 16 16 16 16 17 17
22 21 21 20 20 20 20 20 21 21 21 21 21 21 21 21 21 21 21 21 21 21 20 20 20 20 19 19 20 20 20 20 20 20 19 19 19 18 18 18 18 18 18 18 19 19 19 19 19 19 19 18 18 18 17 17 17 17 17 18 17 17 17 17 17 17 18 19 20 20 20 20 19 18 16 16 16 16 16 16 16 16 16 17 17
22 21 21 20 20 20 20 20 20 21 21 21 21 21 21 21 21 21 21 21 21 21 20 20 20 20 20 20 20 20 20 20 19 19 19 19 19 18 18 18 18 18 18 18 19 19 19 18 18 18 18 18 17 17 17 17 18 17 17 17 17 17 17 17 17 18 19 19 20 20 20 20 19 18 17 16 16 16 16 16 17 16 16 17 17
22 22 21 20 20 20 20 20 20 20 20 21 21 21 21 21 21 21 21 21 21 21 20 20 20 20 20 20 20 20 20 19 19 19 19 19 19 18 18 18 18 18 18 18 18 18 18 18 18 18 18 17 17 17 17 17 17 17 17 17 17 17 17 17 17 18 19 20 20 20 20 20 20 18 16 16 16 16 16 17 17 17 16 16 16
22 22 21 20 20 20 20 20 20 20 20 20 20 20 21 21 21 21 21 21 21 20 20 20 20 20 20 20 20 19 19 19 19 19 19 19 19 18 18 18 18 18 18 18 18 18 18 18 18 17 17 17 17 17 17 17 17 17 17 17 17 17 17 17 17 19 20 21 20 19 19 20 19 17 16 15 15 15 16 16 16 16 16 16 16
22 22 21 20 20 20 20 20 20 20 20 20 20 20 20 21 21 21 21 20 20 20 20 20 20 20 20 20 19 19 19 19 19 19 19 19 18 18 18 18 18 18 18 18 18 18 18 18 17 17 18 18 17 17 17 17 17 17 17 17 17 17 17 17 18 20 20 21 20 19 20 20 19 17 16 15 15 15 15 16 16 16 16 16 16
22 22 21 20 20 20 20 20 20 20 20 20 20 20 20 20 21 21 21 20 20 20 20 20 20 20 20 20 19 19 19 19 19 19 19 19 18 18 18 18 18 18 18 18 18 18 18 18 18 18 18 18 17 17 17 17 17 17 17 16 16 16 17 17 19 20 20 20 19 20 20 20 18 16 16 15 15 15 15 15 15 15 16 16 16
22 21 21 20 20 20 20 20 20 20 20 20 20 20 20 20 20 21 20 20 20 20 20 20 20 20 20 20 19 19 19 18 18 18 19 19 18 18 19 18 18 18 18 18 17 17 18 18 18 18 18 17 17 17 17 17 17 17 17 17 17 17 17 18 19 20 20 20 19 20 20 19 17 16 16 16 15 15 15 15 15 15 15 15 15
22 21 21 21 20 20 20 20 19 20 20 20 20 20 20 20 20 20 20 20 20 20 20 20 20 20 20 20 19 19 19 18 18 18 18 19 19 18 18 18 18 18 18 18 18 17 17 17 18 18 18 17 17 17 17 17 17 17 17 17 17 17 17 18 19 19 19 19 19 20 20 18 17 16 16 16 16 15 15 15 15 15 15 15 15
21 21 21 21 20 20 20 20 19 19 20 20 20 20 20 20 20 20 20 20 20 20 20 20 20 20 20 20 19 19 19 19 18 18 18 19 19 19 18 18 18 18 18 18 18 17 17 17 17 18 17 17 17 17 17 17 17 17 17 17 17 17 17 18 19 19 19 19 19 19 20 18 16 16 16 16 16 15 15 15 15 15 15 15 15
21 21 21 21 20 20 20 20 20 20 20 20 20 20 20 20 20 20 20 20 20 20 20 20 20 20 20 19 19 19 19 19 19 19 19 19 19 19 19 18 18 18 18 18 18 17 17 17 17 17 18 18 17 17 17 17 18 18 17 17 17 17 17 18 19 19 19 19 19 19 19 18 16 16 16 16 15 15 15 15 15 15 15 15 15
21 21 20 20 21 20 20 20 20 20 20 20 19 20 20 20 20 20 20 20 20 20 20 20 19 19 19 19 19 19 19 19 19 19 18 19 19 19 19 19 18 18 18 18 18 17 17 17 17 17 18 18 17 17 17 17 18 18 17 17 17 17 17 17 18 19 18 18 19 19 19 18 16 16 16 16 15 15 15 15 15 15 15 15 15
21 21 20 20 20 20 20 20 20 20 20 20 20 20 20 20 20 20 20 20 20 20 20 20 20 19 19 19 19 19 19 19 19 19 18 19 19 19 19 19 18 18 18 18 18 18 17 17 17 17 17 17 17 17 17 17 18 18 18 18 17 17 17 17 19 19 19 18 19 19 18 17 16 16 16 15 15 15 15 15 15 15 15 15 15
21 20 20 21 21 20 20 20 20 20 20 20 20 20 19 19 19 19 20 20 20 20 20 20 20 20 19 19 19 19 18 18 18 18 18 19 19 18 19 19 19 19 18 18 18 17 17 18 18 18 17 17 17 17 17 18 18 18 18 18 18 17 17 18 19 19 19 18 18 19 17 16 16 16 16 15 15 15 15 15 15 15 15 15 15
21 21 20 21 21 20 20 20 20 20 20 19 20 20 19 19 19 19 19 20 20 19 20 20 20 20 19 19 19 18 18 18 18 18 19 18 19 19 18 19 19 18 18 18 18 17 17 18 18 18 18 18 18 18 18 18 18 18 18 18 18 18 18 18 19 19 19 18 18 18 16 16 16 16 16 15 15 15 15 15 15 15 15 15 15
20 20 20 21 21 20 20 20 20 20 20 20 19 19 19 19 19 19 19 19 19 19 19 19 19 19 19 19 18 18 18 18 18 18 19 19 19 19 18 18 18 18 18 18 18 17 17 17 17 18 18 18 18 18 18 18 18 18 18 18 18 18 19 19 19 19 19 19 19 18 16 15 16 16 16 16 15 15 15 15 14 14 15 15 14
20 20 20 20 20 20 20 20 20 19 20 20 19 19 19 19 19 19 19 19 19 19 19 19 19 19 19 19 19 19 19 19 18 18 19 19 19 18 18 18 18 18 18 18 18 18 17 17 17 17 18 18 18 18 18 18 18 18 18 18 19 19 19 18 19 19 20 19 19 18 16 16 16 16 16 16 15 15 15 15 14 14 14 14 14
20 20 20 20 20 20 20 20 20 19 19 19 19 20 19 19 20 19 19 19 19 19 19 19 20 20 19 19 19 20 19 19 19 19 19 19 19 18 18 18 18 18 18 18 18 18 17 17 17 17 17 18 18 19 19 19 19 18 18 18 19 19 19 19 19 20 20 19 19 18 16 16 16 16 16 16 15 15 15 15 14 14 14 14 14
21 21 21 20 20 20 20 20 20 20 19 19 20 20 19 20 20 19 19 19 19 19 19 20 20 20 19 19 20 20 20 20 19 19 19 19 19 18 18 18 18 18 18 18 18 18 18 17 17 17 17 17 18 18 19 19 19 19 19 19 19 19 19 19 19 19 20 19 19 17 16 16 16 16 16 15 15 15 15 15 15 15 15 14 14
21 21 21 21 20 20 20 20 20 20 19 20 20 19 19 19 19 19 19 19 19 19 20 20 20 19 20 20 20 20 20 20 19 19 20 19 19 19 19 18 18 18 18 18 19 19 19 18 17 17 17 17 17 18 18 18 18 19 19 19 19 19 19 19 19 19 19 19 18 17 17 16 16 16 16 16 15 15 15 15 15 15 15 15 14
21 21 21 21 21 21 20 20 20 20 20 20 20 20 20 19 19 19 19 19 19 19 20 20 20 19 19 19 19 20 20 20 20 19 19 19 19 18 19 18 18 18 18 18 19 19 19 19 17 17 17 17 17 17 17 18 18 19 19 19 19 19 19 19 19 19 19 19 18 18 17 16 16 16 16 16 16 15 15 15 15 14 14 15 14
22 22 22 21 21 21 21 20 20 19 19 20 20 20 20 19 19 19 19 19 19 19 20 20 20 19 19 19 19 19 20 20 20 20 19 19 18 18 18 18 18 18 18 18 19 19 19 19 18 17 17 17 17 17 17 18 18 18 19 19 19 19 19 19 19 19 19 19 19 18 17 17 16 16 16 16 16 15 15 15 15 15 14 14 14
22 22 22 22 22 21 21 21 20 20 20 20 20 20 19 19 19 19 19 19 19 19 19 19 20 19 19 19 19 18 19 19 20 20 19 18 18 18 18 18 18 18 18 18 19 19 19 19 18 17 17 17 17 17 18 18 18 18 18 19 19 19 19 19 19 19 19 19 19 18 18 17 16 16 16 16 16 16 15 15 15 15 14 14 14
22 22 21 22 22 22 21 21 21 20 20 20 20 20 19 19 19 19 19 19 19 18 18 19 19 19 20 19 19 18 19 19 19 19 19 18 18 18 18 18 18 18 18 18 19 19 19 19 18 18 17 17 17 17 18 18 18 18 18 19 19 19 19 19 19 19 19 19 19 18 18 18 17 17 16 16 16 16 16 16 15 15 15 14 14
22 22 22 22 22 22 22 22 21 20 20 21 20 20 19 19 19 18 18 19 18 18 18 19 18 18 19 18 18 18 19 19 19 18 18 18 18 17 17 18 18 18 18 18 18 18 18 19 19 18 17 17 18 17 18 18 18 18 18 19 19 19 19 19 19 19 19 20 19 19 18 18 18 17 17 16 16 16 16 16 16 15 15 15 15
23 22 22 22 21 22 22 22 21 20 20 21 20 20 20 19 19 19 18 18 18 18 19 18 18 18 18 17 17 18 18 18 18 18 18 18 18 17 17 17 17 18 18 18 18 17 17 18 18 18 18 18 17 17 17 18 18 19 18 18 18 19 19 19 19 19 20 20 19 19 19 18 18 18 17 17 17 16 16 16 16 16 15 15 15
23 23 22 22 21 21 21 21 21 20 20 20 20 20 20 19 19 19 18 18 18 18 18 18 18 18 17 17 17 18 18 18 18 18 18 18 18 17 17 17 17 17 18 17 17 17 17 18 18 18 18 17 17 17 17 18 18 18 18 18 18 19 19 19 19 19 19 20 19 19 19 19 18 18 18 18 17 17 16 16 16 16 16 16 15
24 23 22 21 20 20 20 20 20 20 20 20 20 20 19 19 19 19 18 18 18 18 18 17 17 17 17 17 17 17 17 18 18 18 18 18 18 17 17 17 17 17 17 17 17 17 17 18 18 18 18 17 17 17 17 18 18 18 18 18 18 18 18 19 19 19 19 19 19 19 19 20 19 18 18 18 18 18 17 17 16 16 16 16 16
24 23 22 21 20 20 19 19 19 19 19 19 19 19 19 19 19 19 18 18 18 18 17 17 17 17 18 17 17 17 17 17 17 17 17 17 18 17 17 17 16 17 17 16 16 17 17 17 18 18 18 18 17 17 17 17 17 18 18 18 18 18 18 18 19 19 19 19 19 19 19 19 19 19 19 18 18 18 18 17 17 16 16 16 16
23 22 21 20 20 20 19 19 19 19 19 19 19 19 18 19 19 18 18 18 19 18 18 18 18 18 18 18 17 17 17 17 17 17 17 17 17 17 17 16 16 16 16 16 16 16 16 17 17 18 18 18 18 17 17 16 16 16 17 17 18 18 18 18 18 18 19 19 19 20 19 19 19 19 19 19 18 18 18 18 17 17 16 16 16
22 21 21 20 20 20 19 19 19 19 19 19 19 18 18 18 18 18 18 19 19 19 18 18 18 18 18 18 17 17 17 17 17 16 16 16 16 16 16 16 16 16 16 16 16 16 16 16 16 17 17 17 17 17 17 16 16 16 16 17 17 18 18 18 18 19 19 19 19 20 20 20 19 19 19 19 19 18 18 18 18 17 17 17 16
21 21 21 20 20 20 19 19 19 19 19 19 19 18 19 18 18 18 18 18 18 19 19 19 18 18 17 17 17 17 17 16 16 16 16 16 16 16 16 16 16 16 16 15 15 16 16 16 16 16 16 16 16 17 17 16 15 16 16 16 17 18 18 18 18 19 19 19 20 20 20 20 19 19 19 19 19 19 18 18 18 18 17 17 17
20 20 20 20 20 20 20 19 19 19 19 18 18 19 19 19 19 18 18 18 18 18 18 18 18 17 17 17 17 17 17 16 16 16 17 16 16 16 16 16 15 15 15 15 15 15 16 16 16 16 16 16 16 16 16 16 16 16 16 16 16 17 18 18 18 18 19 19 19 19 20 20 19 19 19 19 19 19 19 18 18 17 17 18 18
20 20 20 20 20 20 20 19 19 19 19 19 19 19 19 19 19 19 19 19 18 18 18 18 18 17 17 17 16 17 16 16 17 17 17 17 16 16 16 16 15 15 15 15 15 15 15 15 15 16 15 15 16 16 16 16 16 16 16 16 16 16 17 18 18 18 19 19 19 19 19 19 20 20 19 19 19 19 19 19 19 18 18 18 18
20 20 20 20 20 20 20 19 19 19 19 19 20 20 20 20 20 19 19 19 19 18 18 18 18 17 17 16 16 16 16 16 16 17 16 17 17 16 16 16 15 15 15 15 15 15 15 15 15 15 15 15 16 16 15 15 15 16 16 16 16 16 16 17 17 18 19 19 19 19 19 19 19 19 19 20 19 19 19 19 19 19 19 19 18
20 20 20 20 20 20 20 19 19 19 19 19 20 20 20 20 20 20 20 19 19 19 18 18 17 16 16 16 16 16 16 16 16 16 16 17 17 17 16 16 15 15 15 15 15 15 15 15 15 15 15 15 16 15 15 16 15 15 16 16 16 16 16 17 16 17 18 18 18 18 18 19 19 19 19 19 19 20 20 19 19 19 19 20 20
20 20 20 20 20 20 20 19 19 19 19 19 19 20 19 19 19 19 19 19 19 18 18 17 17 16 16 16 15 15 16 16 16 16 16 17 17 17 17 16 16 16 15 15 15 15 15 15 15 15 15 15 16 15 15 16 16 16 16 15 16 16 16 17 17 17 17 17 17 18 19 19 19 19 19 19 19 19 20 19 19 19 19 19 20
20 20 20 20 20 20 20 19 19 19 19 19 19 19 19 18 18 18 18 18 18 17 17 17 17 16 16 16 15 15 15 16 16 16 16 16 16 17 17 16 16 16 16 16 15 15 15 15 15 15 15 15 15 15 15 16 16 16 16 16 15 15 16 16 16 16 17 17 17 17 18 18 19 19 19 19 19 19 19 19 19 19 19 19 19
20 20 20 20 20 20 20 19 19 19 19 19 19 19 18 18 18 18 18 18 18 18 18 17 17 17 16 16 15 15 15 15 15 16 16 16 16 16 16 16 16 16 16 16 16 16 15 15 15 15 15 15 15 15 15 15 15 15 16 16 15 15 16 16 16 16 17 17 16 16 17 17 18 19 19 19 19 19 19 19 19 18 18 18 19
20 20 20 20 20 20 20 19 19 19 19 19 19 19 19 19 19 19 19 19 19 19 19 18 18 17 17 16 15 15 15 15 15 15 15 16 15 15 15 16 16 16 16 16 16 16 16 16 15 15 15 15 15 15 15 15 15 15 15 16 15 15 15 15 15 16 15 16 16 16 16 16 17 18 19 19 19 19 19 19 18 18 18 18 18
21 20 20 20 20 20 19 19 20 19 19 19 18 19 19 19 19 20 20 20 20 19 19 18 18 17 16 16 16 15 15 15 15 15 15 15 15 15 15 15 15 15 15 15 15 15 15 15 15 15 15 15 15 15 15 15 15 15 15 15 15 15 15 15 15 15 15 15 16 16 16 15 16 16 17 19 19 19 18 18 19 19 19 18 18
21 20 20 20 20 20 19 19 20 19 19 18 18 19 19 19 19 20 20 20 20 19 18 18 17 17 16 16 16 15 15 15 15 15 15 15 15 15 15 15 15 15 15 15 15 15 15 14 14 14 15 15 15 15 16 15 15 16 16 16 15 15 15 15 15 15 15 15 15 16 16 15 16 16 17 17 18 18 18 18 18 19 19 19 18
21 20 20 20 20 19 19 20 19 19 19 18 18 19 19 20 20 20 20 20 20 19 19 18 17 17 17 16 16 16 15 15 15 15 15 15 15 15 15 15 15 15 15 15 14 14 14 14 14 14 14 14 14 15 16 16 16 16 16 16 16 16 16 15 15 16 15 15 15 16 16 16 16 16 16 17 17 17 17 18 18 18 19 19 18
21 21 20 19 19 19 19 19 19 19 19 18 18 19 19 19 20 20 20 20 20 19 19 18 17 17 17 16 16 16 16 15 15 15 15 15 15 15 14 14 14 14 15 14 14 14 13 13 13 13 13 13 14 14 14 15 15 15 15 16 16 17 17 16 16 15 16 16 16 16 17 16 16 16 16 16 17 18 18 18 18 18 19 19 18
21 20 20 19 19 19 19 19 19 19 19 18 18 19 19 19 20 20 20 20 19 19 19 18 18 18 17 17 17 17 16 16 15 15 15 15 14 14 14 14 14 14 14 14 14 14 13 13 13 13 13 13 13 13 13 14 14 14 15 15 15 16 16 16 16 15 15 16 15 16 17 17 17 18 17 17 17 17 18 19 18 18 19 19 19
Height
786 788 789 791 793 795 797 799 800 801 803 804 804 805 806 807 808 808 809 810 810 812 813 814 815 815 816 817 817 818 819 820 820 820 821 823 823 824 825 825 825 826 827 827 828 828 828 828 828 829 829 829 828 828 828 828 829 829 830 830 830 830 831 831 831 831 832 832 832 832 832 832 832 832 833 833 833 832 832 832 833 832 832 831 831
786 788 789 792 794 795 798 799 801 802 804 805 805 806 807 808 808 809 810 810 811 812 813 815 815 816 817 818 818 819 820 820 821 821 822 823 824 824 825 826 826 827 827 828 828 828 829 829 830 829 830 830 829 829 829 830 830 831 831 831 831 831 831 832 832 832 833 833 833 832 833 833 833 833 834 834 834 834 833 833 833 833 833 833 832
786 788 790 792 794 796 798 800 802 803 805 805 806 807 808 809 809 810 810 811 811 812 814 815 816 816 817 818 819 819 821 821 821 822 823 824 824 825 825 826 827 827 827 828 828 829 829 830 830 830 831 831 831 831 831 831 831 832 832 832 832 832 832 833 833 833 834 834 833 833 834 834 834 835 835 835 835 834 834 834 834 834 834 834 833
785 788 790 793 795 797 799 800 802 804 805 806 807 808 809 810 810 811 811 811 812 813 814 815 816 817 818 818 819 820 821 822 822 823 824 825 825 826 826 827 827 828 828 828 829 829 830 830 831 831 832 832 832 832 832 832 832 833 833 833 833 833 833 833 834 834 834 834 834 834 835 836 836 836 836 836 835 835 835 834 834 835 835 835 835
786 788 790 793 796 798 800 801 803 804 805 807 808 809 810 810 811 811 812 812 813 814 815 816 816 817 818 819 820 821 822 822 823 824 825 825 826 827 827 828 828 828 828 829 829 830 830 831 831 832 832 833 833 833 833 833 833 834 834 834 834 834 834 834 835 835 835 835 835 836 838 837 837 837 837 837 836 836 835 835 835 835 836 836 836
786 788 791 793 796 798 800 802 803 804 806 807 809 810 811 811 812 812 813 813 814 815 816 817 817 818 819 819 821 821 823 823 824 825 825 826 827 828 828 829 829 829 829 830 830 830 831 831 832 832 833 834 834 834 834 834 834 835 835 835 835 835 835 835 835 836 836 836 836 838 839 838 838 838 838 838 838 837 837 837 837 837 837 837 837
787 789 792 794 797 799 800 802 803 804 806 807 809 810 811 812 813 813 814 814 815 816 817 818 818 819 819 820 821 822 823 824 825 826 826 827 828 829 829 830 830 830 831 831 831 831 831 832 832 833 834 834 834 835 835 835 835 835 836 836 836 836 836 836 836 837 836 837 838 839 839 839 840 840 839 840 839 839 838 838 838 838 838 838 838
788 790 793 794 797 799 801 802 804 805 806 808 809 810 812 813 813 814 814 815 816 817 818 819 819 820 821 821 822 823 824 825 825 826 827 828 829 830 830 830 830 831 831 832 832 832 833 833 833 834 834 835 835 835 836 836 836 836 837 837 837 837 837 837 837 838 837 838 840 840 840 840 840 840 840 840 840 840 840 839 839 839 840 840 840
789 791 793 796 798 800 802 803 804 805 806 808 809 810 812 813 814 814 815 816 817 818 819 820 821 821 821 822 823 824 825 825 826 827 828 828 829 830 831 831 831 832 832 833 833 833 834 834 834 834 834 835 836 836 836 836 837 837 837 838 838 838 838 838 838 838 838 840 841 840 840 841 841 841 841 841 841 841 841 841 841 841 841 841 841
790 792 794 796 799 801 802 803 805 806 807 808 810 811 812 814 815 815 815 816 817 818 820 820 821 822 822 823 824 825 825 826 826 827 828 829 830 831 831 832 832 832 833 834 834 834 834 835 835 835 835 835 836 837 837 837 838 838 838 839 839 839 839 839 839 839 840 841 841 841 841 841 842 842 842 842 842 842 842 842 842 842 842 842 841
791 794 796 797 799 801 802 803 805 806 808 809 810 811 813 814 815 815 816 817 818 819 820 821 822 822 823 824 825 826 826 827 827 828 828 829 830 831 832 832 833 833 834 834 835 835 835 836 836 836 836 836 837 837 838 838 838 839 839 840 840 840 840 840 840 841 842 842 842 842 842 842 843 843 842 843 843 843 843 843 843 843 843 843 842
793 795 796 798 800 802 803 804 805 806 807 809 811 812 813 814 815 816 816 817 818 820 821 821 822 823 824 825 826 826 827 827 827 828 829 829 830 831 832 833 834 834 834 835 836 836 836 836 836 836 837 837 838 838 838 839 839 840 840 841 841 841 841 841 841 843 843 843 843 843 844 844 844 843 843 844 843 843 844 844 844 844 844 844 843
794 796 797 799 800 802 804 805 806 807 808 809 811 812 813 815 816 816 817 818 819 820 821 822 822 823 824 825 826 827 827 828 828 829 829 830 831 832 832 833 834 834 835 835 836 837 837 837 837 837 838 838 839 839 840 840 841 841 841 842 842 842 842 841 842 844 844 844 844 844 845 845 844 844 844 844 844 844 844 845 845 845 845 844 844
795 797 798 799 801 803 804 806 807 808 809 810 811 812 814 815 816 817 817 818 819 820 821 822 823 824 825 825 826 827 828 828 829 829 830 830 831 832 832 833 834 835 835 836 837 837 837 837 837 838 838 839 839 840 841 841 842 842 842 842 842 842 842 842 843 844 845 845 845 845 846 845 845 845 845 845 845 845 845 845 845 845 845 845 845
796 797 799 800 801 803 805 807 807 808 810 810 811 813 814 816 817 818 818 818 819 821 821 822 823 824 825 826 827 827 828 829 830 830 830 831 831 832 832 834 835 835 836 837 837 837 837 837 838 838 839 840 840 841 842 842 842 842 843 843 843 843 842 843 844 845 845 846 846 846 846 846 845 845 845 845 845 845 846 846 846 846 846 846 845
797 798 800 802 802 804 806 807 808 809 810 811 812 813 815 816 817 818 818 819 820 821 822 823 823 825 826 827 827 828 829 829 831 831 831 831 832 832 833 834 835 836 836 837 837 838 838 838 838 839 839 840 841 842 842 843 843 843 843 843 844 844 843 843 845 845 846 846 846 847 847 846 845 846 846 845 845 845 846 847 847 847 847 847 846
798 799 801 802 804 805 806 807 808 810 810 812 813 814 816 816 817 818 819 819 820 821 822 823 824 825 826 827 828 828 829 830 831 832 832 832 833 833 834 834 835 836 836 837 838 838 838 838 839 839 840 841 842 842 843 844 844 844 844 844 845 845 844 844 845 846 846 846 847 847 847 846 845 846 846 846 846 846 847 847 848 848 848 848 847
799 800 802 803 804 806 807 808 809 810 811 812 813 814 815 816 817 818 819 820 820 822 823 824 824 825 826 827 827 828 829 830 831 832 832 832 833 834 834 835 835 836 836 837 837 838 839 839 839 840 840 841 842 843 843 844 845 845 845 845 845 846 845 844 846 846 846 847 847 847 847 846 846 846 846 846 846 846 847 848 849 849 849 848 848
800 801 802 804 805 806 807 808 809 810 811 812 813 814 815 816 817 818 819 820 821 822 823 824 825 825 826 826 827 828 829 830 831 831 831 832 833 834 834 835 836 836 836 837 837 838 839 839 840 840 840 841 842 843 844 844 845 845 846 846 846 846 846 846 847 847 847 847 847 847 846 846 846 846 847 847 847 847 848 849 849 849 850 849 849
800 801 803 804 805 806 807 809 810 811 812 812 813 813 815 816 818 819 819 820 821 822 823 824 825 826 826 826 828 829 829 830 831 832 832 832 833 834 834 835 835 836 836 836 837 838 839 840 840 840 841 842 843 844 844 845 845 846 846 847 847 847 846 847 847 847 847 847 847 848 847 847 847 847 847 847 847 848 848 849 849 850 850 850 850
800 801 803 804 805 807 808 809 810 811 812 812 813 813 815 816 818 819 820 820 821 822 823 824 825 826 826 826 829 830 831 831 832 832 832 832 833 833 834 834 835 836 836 836 837 838 839 840 840 841 841 842 843 844 845 845 846 846 847 847 847 847 847 847 848 848 847 847 848 848 847 847 848 848 848 848 848 848 848 849 850 850 850 851 850
800 802 803 804 805 807 808 809 810 811 812 812 813 813 815 816 818 819 819 820 821 822 823 823 824 825 825 826 828 829 830 831 831 832 832 832 832 833 834 834 835 836 836 837 837 838 839 840 841 841 841 842 843 845 845 846 846 847 847 847 847 847 847 848 848 848 848 848 848 848 848 848 849 849 849 848 848 848 849 849 850 850 851 851 851
801 802 804 805 806 807 808 809 810 811 812 813 813 814 816 816 817 818 819 820 821 822 823 823 824 824 825 826 827 827 828 829 830 831 832 831 831 832 834 835 836 836 836 837 837 838 839 840 841 841 842 843 844 845 846 846 847 847 847 848 848 848 848 848 849 848 848 848 848 848 848 849 849 850 850 849 849 849 849 849 850 850 851 851 851
801 803 804 805 806 807 808 809 810 811 811 812 813 814 815 816 816 818 819 820 821 822 822 823 824 824 824 826 826 827 828 828 829 830 830 831 831 832 834 835 836 836 836 837 837 837 838 839 840 841 842 843 844 845 846 847 847 847 848 848 848 848 848 848 849 848 849 849 848 848 849 849 849 850 850 850 850 850 850 850 850 850 851 851 851
801 802 804 805 806 807 808 809 809 810 811 812 813 814 815 816 816 817 818 819 820 821 822 823 823 824 824 825 826 827 828 828 828 829 830 831 832 833 834 835 836 836 837 837 838 838 838 839 840 841 842 843 844 845 846 846 847 848 848 848 848 848 849 849 849 849 849 849 849 849 849 849 850 851 851 850 850 850 850 850 850 850 850 851 851
801 802 803 804 805 807 808 809 810 810 811 812 812 813 814 815 816 817 818 819 820 821 822 822 823 824 825 825 826 827 827 827 828 828 830 831 832 833 834 835 836 837 837 837 838 838 839 839 840 841 841 842 843 845 846 847 847 848 848 848 848 848 849 849 849 849 849 850 849 849 849 849 850 851 851 851 851 851 851 851 850 850 850 850 851
800 801 803 804 805 807 808 809 810 810 811 812 812 813 814 815 816 816 817 819 820 820 821 822 823 824 825 826 826 827 827 827 828 829 830 831 832 833 834 835 835 836 837 837 837 838 839 839 839 840 841 842 843 844 845 846 847 848 848 848 848 848 848 849 849 849 850 850 849 849 849 850 850 850 851 851 851 851 851 851 851 851 850 850 850
799 801 802 804 806 807 808 809 810 810 811 812 812 813 814 814 815 816 817 818 819 820 820 821 822 823 824 826 826 826 827 827 828 829 830 831 832 832 833 834 834 835 836 836 837 838 839 839 840 840 841 842 843 844 845 846 847 847 848 848 848 848 848 848 849 849 849 850 850 849 850 850 850 850 851 851 851 851 851 851 851 851 850 850 850
799 801 803 804 806 807 808 809 810 811 811 812 812 813 813 814 815 816 817 817 819 820 820 820 822 823 824 825 826 826 827 827 828 829 830 831 831 831 832 833 833 834 834 835 836 837 838 839 839 840 841 841 842 843 844 845 846 847 847 847 847 847 847 848 848 848 849 849 850 849 849 850 850 850 851 851 851 851 851 851 851 851 851 851 851
799 801 803 804 806 807 808 809 810 811 812 812 813 813 814 814 815 816 817 817 818 819 820 820 821 822 823 824 825 826 826 827 828 829 830 831 831 831 831 832 833 834 834 835 836 837 837 838 839 840 840 841 842 842 843 844 845 845 846 846 846 846 847 847 847 848 848 849 849 849 849 849 850 850 850 850 851 851 851 851 851 851 851 851 851
798 801 803 804 806 807 808 809 810 811 812 812 813 814 814 815 815 816 817 817 818 818 819 820 821 821 822 823 824 825 826 827 828 828 829 830 830 831 831 831 832 833 833 834 835 836 837 838 839 840 840 840 841 841 842 843 843 844 845 845 845 845 846 846 847 847 848 848 848 848 848 848 849 849 850 850 850 850 850 850 851 851 851 851 851
798 800 802 803 805 806 807 809 810 811 812 812 813 814 814 815 815 816 816 817 818 818 819 819 820 820 821 822 823 824 825 826 827 828 829 829 830 830 830 830 830 831 832 834 835 836 837 838 838 839 840 840 840 841 841 842 842 843 844 844 844 845 845 846 846 847 847 847 847 848 847 848 848 848 849 849 849 849 849 850 850 851 851 851 851
797 799 801 803 805 806 807 809 810 811 812 812 813 814 814 815 816 816 816 817 817 818 818 819 819 820 821 821 823 824 825 826 826 827 828 829 829 829 829 828 829 830 831 834 835 836 837 837 838 839 839 840 840 840 841 841 842 842 843 843 843 844 845 845 846 846 846 846 847 847 847 847 847 847 847 848 848 848 848 849 849 850 851 851 851
796 798 800 802 804 806 807 808 810 811 811 813 813 814 814 815 815 816 816 817 817 817 817 818 819 820 821 822 823 824 825 826 826 827 827 828 828 829 828 827 828 830 832 834 835 836 837 837 838 838 839 839 840 840 841 841 841 841 841 842 842 843 843 844 845 846 846 846 846 846 846 846 846 846 846 846 846 847 847 848 848 849 850 850 850
795 798 800 802 803 805 807 808 809 811 812 813 813 814 815 815 815 816 816 817 817 817 817 818 818 820 821 822 823 824 824 825 826 826 826 827 827 828 828 828 828 830 831 833 834 835 836 836 836 837 838 839 839 840 840 841 841 840 841 841 841 841 842 843 843 844 845 845 845 845 845 845 845 845 845 845 845 845 846 846 847 848 849 849 849
795 797 799 801 803 804 806 808 809 811 812 813 814 814 815 815 816 816 817 817 817 818 818 818 819 820 821 821 822 823 823 824 824 825 826 826 827 827 827 828 828 829 830 831 834 835 835 835 835 836 837 838 839 839 840 841 841 841 841 841 840 840 841 841 842 843 843 844 844 844 844 844 844 845 844 844 843 844 844 845 846 847 847 848 848
796 797 799 800 802 804 806 807 809 810 812 813 814 814 815 816 816 817 817 817 818 818 818 818 819 820 821 822 822 822 823 824 824 825 825 826 826 826 826 827 828 828 829 831 832 833 834 834 835 836 837 837 838 839 839 840 841 842 841 841 840 840 840 840 841 841 842 843 843 843 843 843 843 843 843 843 843 842 842 843 844 845 846 847 847
795 796 798 800 802 804 805 807 808 810 811 812 814 814 815 816 816 817 817 818 818 818 818 819 820 821 822 822 822 823 823 824 824 824 825 826 826 825 826 827 827 828 829 830 831 832 833 833 834 835 836 836 837 838 839 840 841 841 841 841 840 839 839 839 840 840 841 841 841 842 842 842 842 842 842 842 842 842 841 842 843 843 844 844 845
794 796 798 800 802 804 805 806 808 809 810 812 813 814 815 816 816 817 818 818 818 818 819 819 820 821 822 822 822 823 824 824 824 824 825 825 825 825 825 826 827 827 829 830 831 832 832 833 833 834 835 835 836 836 837 838 839 840 840 840 840 839 838 838 839 839 839 840 840 840 840 841 841 841 841 841 841 841 841 841 841 842 842 842 843
793 795 798 800 802 804 805 806 807 808 810 811 813 813 814 815 816 817 817 818 818 819 820 820 820 821 822 823 823 824 824 824 824 824 825 825 825 825 824 825 826 826 827 828 830 830 831 832 832 833 834 834 834 835 836 837 838 838 839 839 839 838 837 836 837 838 838 838 839 839 840 840 840 840 840 840 840 839 839 840 840 840 841 841 841
793 795 797 799 801 803 804 805 806 808 809 811 812 813 813 814 815 816 817 818 819 819 820 821 821 822 823 823 824 824 824 824 824 824 824 825 825 825 825 825 826 826 827 827 828 829 830 831 831 832 833 833 833 834 835 836 837 838 838 838 837 837 837 837 837 837 837 837 838 838 839 838 838 838 838 838 838 838 838 838 839 839 839 839 839
791 793 795 798 800 802 803 804 806 807 809 810 811 813 813 814 815 816 816 817 818 819 820 821 822 822 823 824 824 825 825 825 825 825 825 825 825 825 825 826 826 826 827 827 828 829 829 830 830 831 831 832 832 833 834 835 836 837 837 838 837 836 836 836 837 837 836 837 837 837 837 837 836 836 836 837 836 837 837 837 837 837 837 837 837
790 792 795 797 799 801 802 804 805 807 809 810 811 812 813 814 815 816 817 817 818 820 820 821 822 823 824 824 825 825 825 825 825 825 825 825 826 826 826 826 826 827 827 827 828 829 829 829 829 830 831 831 831 832 833 833 834 835 837 838 838 836 835 834 835 835 835 836 837 836 836 835 834 834 834 835 835 835 835 835 835 836 836 836 836
788 791 793 795 797 799 801 802 804 806 808 809 810 812 813 814 815 816 817 818 819 820 821 822 822 823 824 824 825 825 826 826 826 826 826 826 827 827 827 827 827 827 828 828 828 829 829 829 829 830 831 831 831 832 832 832 833 835 836 837 838 838 837 835 834 834 834 836 837 837 835 834 833 833 833 833 833 834 834 834 834 834 834 834 834
786 788 791 793 795 798 800 801 803 806 808 809 810 811 812 814 815 816 818 818 819 820 821 822 823 823 824 825 825 826 826 826 827 827 827 827 828 828 828 828 828 828 828 828 829 829 829 829 829 830 830 831 831 832 832 832 833 834 835 836 838 838 837 836 835 834 834 835 837 837 835 834 833 832 832 831 832 831 832 832 832 832 832 832 832
783 786 789 791 794 796 798 801 803 805 807 809 810 811 812 813 814 815 817 817 818 820 820 822 823 823 824 825 825 826 826 827 827 828 828 828 829 829 829 829 829 829 829 829 830 830 830 830 830 830 830 830 831 831 832 832 833 833 834 834 836 836 835 836 837 836 836 836 836 835 835 834 833 832 831 830 830 830 830 830 830 830 830 830 830
780 783 787 789 792 795 797 799 802 804 807 808 809 810 811 812 813 814 815 816 817 819 820 822 823 823 824 825 826 826 827 827 828 829 829 829 830 830 830 830 830 830 830 830 830 831 831 831 831 831 831 831 831 831 832 833 833 833 833 834 834 834 835 836 837 837 837 837 835 835 835 834 833 832 830 829 829 830 830 830 829 829 829 829 829
777 781 784 787 790 793 795 798 800 803 805 807 808 810 811 811 812 813 814 816 816 818 821 822 823 824 825 825 826 827 827 828 829 829 830 830 830 831 831 831 831 831 831 831 831 831 831 832 832 832 832 832 832 832 833 834 834 833 833 833 834 834 834 835 835 836 837 837 836 835 835 834 833 832 831 830 829 830 830 829 829 828 827 828 827
774 778 781 785 788 790 793 796 799 801 803 805 807 808 810 811 812 812 813 815 816 818 820 821 823 824 825 826 826 827 828 828 829 829 830 831 831 832 832 832 832 832 832 832 832 832 832 832 832 832 833 833 833 834 834 834 834 834 834 833 833 833 834 834 835 836 836 837 837 835 835 834 833 832 831 830 830 829 829 829 828 827 826 826 826
772 776 779 783 786 789 792 795 797 800 801 803 806 807 809 810 811 811 812 814 816 817 819 821 822 823 825 826 827 828 828 829 829 830 830 831 831 832 832 832 833 833 833 833 833 833 833 833 833 833 833 834 834 834 835 835 835 835 834 834 833 833 833 833 835 836 836 836 835 834 834 833 832 831 830 829 828 828 828 827 826 825 825 824 824
770 774 777 780 784 787 790 793 795 798 800 802 804 806 807 809 810 811 811 813 815 817 818 819 821 823 824 825 826 827 828 829 830 830 831 831 832 832 832 833 833 833 834 834 834 834 834 834 834 834 835 835 835 835 835 836 836 835 835 835 834 834 835 835 835 837 836 836 835 834 833 832 830 829 828 827 827 827 826 825 824 824 823 822 822
Wind_Speed
15 16 19 21 22 22 20 20 20 19 18 18 17 17 16 16 16 16 17 18 18 19 19 19 19 19 18 16 14 15 16 17 16 16 16 15 16 15 14 13 13 13 12 12 11 10 10 9 9 9 9 10 10 9 10 12 12 12 12 12 12 12 12 12 11 12 12 13 14 14 14 14 14 14 14 14 14 14 14 14 13 14 15 17 17
17 18 19 22 23 22 21 21 20 20 19 19 18 17 17 16 17 16 16 17 19 19 19 19 19 19 18 16 14 14 16 17 16 15 14 14 14 14 14 13 13 12 12 11 11 10 9 9 9 9 9 10 10 9 10 12 12 12 12 11 12 12 11 11 11 11 12 13 13 13 13 13 12 13 13 13 13 12 12 11 12 13 14 16 17
19 19 20 22 23 23 22 21 21 21 20 19 19 18 18 17 17 17 16 16 17 18 19 19 19 19 18 16 15 15 16 16 15 14 13 13 12 12 13 12 12 11 11 11 10 10 9 9 9 9 9 10 10 10 10 11 11 11 11 11 11 11 11 11 11 11 12 12 12 13 13 12 11 12 12 12 11 12 12 11 13 14 14 15 16
19 19 20 22 23 24 22 21 21 21 20 20 19 19 18 18 18 18 16 15 16 18 19 20 19 19 17 17 17 17 16 16 15 14 13 12 11 11 11 11 11 11 11 11 11 10 10 9 9 10 9 9 10 11 11 11 11 11 11 10 10 11 11 11 11 10 11 11 12 12 11 11 10 10 11 11 10 11 12 12 13 15 15 14 15
20 19 21 23 23 24 22 22 22 21 21 20 20 20 19 19 19 18 18 17 17 18 20 19 19 18 18 18 17 17 16 15 15 13 12 11 11 10 9 9 10 10 11 12 12 11 10 10 10 10 9 9 10 10 11 10 11 12 11 10 10 10 10 10 10 9 10 11 12 11 8 10 9 8 9 10 10 11 12 12 13 14 15 15 14
19 19 21 22 23 24 22 22 22 22 21 21 21 20 20 20 19 19 19 18 17 18 19 18 18 18 18 18 17 16 15 15 14 13 12 11 11 10 9 8 8 9 10 11 12 11 11 10 10 10 10 10 10 10 10 9 9 11 11 11 10 10 9 8 8 9 10 11 10 8 7 9 9 7 8 9 9 10 11 12 12 12 14 15 14
19 19 19 20 22 23 23 22 22 22 21 21 21 21 20 20 19 19 19 19 18 17 17 18 18 18 17 17 16 16 15 14 13 12 11 11 10 10 9 8 8 8 9 10 11 11 11 11 11 11 10 10 10 10 10 9 8 9 11 10 9 9 8 8 7 8 9 9 6 6 6 7 8 7 7 9 9 10 10 11 11 11 12 13 13
17 18 17 18 21 23 23 22 22 22 21 21 21 21 20 20 19 19 19 18 18 18 18 18 18 17 16 16 16 15 14 14 13 12 11 10 9 9 9 8 8 8 8 9 9 10 11 11 11 11 11 10 10 10 9 8 8 8 9 10 10 9 7 5 5 7 9 5 3 5 6 7 7 7 7 8 8 9 10 11 11 11 12 12 12
16 18 17 16 20 24 23 22 21 21 21 21 21 22 21 20 19 19 18 18 18 18 19 18 17 16 16 16 15 15 14 13 12 11 11 10 9 9 9 8 8 9 9 9 9 10 11 11 11 11 11 10 10 9 8 8 9 8 9 9 9 8 6 3 3 6 6 2 3 4 6 7 6 7 7 8 8 8 9 10 10 10 11 12 12
14 15 16 17 21 23 22 22 21 21 21 21 21 21 21 20 19 19 18 18 18 18 18 17 16 15 15 15 14 14 13 12 11 11 10 10 9 9 9 8 8 9 10 10 10 10 10 10 11 11 11 11 10 9 8 9 9 9 8 8 8 7 5 2 3 4 2 3 3 3 6 7 6 6 7 7 7 7 7 8 10 11 12 12 12
14 13 14 17 21 21 22 23 21 21 21 20 21 21 21 20 20 19 18 18 18 17 17 16 15 14 13 13 12 12 11 11 11 11 10 10 9 9 9 8 8 9 10 11 10 10 10 10 11 10 10 11 10 10 9 9 9 8 7 7 6 5 4 2 4 2 2 4 3 4 6 7 6 6 6 6 6 8 9 9 10 11 12 11 11
14 13 13 16 19 19 20 21 21 22 22 21 20 20 21 20 20 19 18 18 18 17 16 15 14 13 13 12 11 11 10 11 11 11 10 10 9 8 10 9 8 8 9 10 10 10 10 11 11 10 10 10 10 9 9 9 8 6 6 5 5 4 3 4 4 2 4 4 3 5 5 5 5 5 5 7 6 8 10 10 10 11 11 11 12
14 14 14 15 16 18 18 20 21 20 21 21 20 20 20 20 19 18 19 19 19 18 16 15 14 13 12 12 11 10 10 11 12 11 9 10 9 8 9 9 8 8 8 9 10 10 11 11 11 9 10 11 10 9 9 8 7 4 2 3 3 3 3 6 4 3 5 4 3 4 3 3 4 5 6 7 6 8 10 9 10 10 10 11 12
15 14 14 15 14 16 18 19 20 19 20 20 20 20 19 20 19 18 18 18 18 17 16 15 14 13 12 12 11 10 10 10 12 11 9 9 9 8 9 10 8 8 8 8 10 11 11 11 10 10 10 10 10 10 9 7 5 3 1 1 3 4 6 7 4 4 5 4 4 3 3 4 5 6 6 6 7 8 9 9 9 10 10 10 11
14 15 15 15 14 15 17 18 18 18 19 19 20 20 19 19 19 19 18 18 17 16 16 15 14 13 13 12 11 10 10 9 10 10 9 9 9 8 9 9 8 7 7 7 9 10 9 9 10 11 10 9 9 10 8 4 3 3 2 1 3 5 7 5 3 5 5 4 4 3 4 4 4 6 6 6 5 7 8 8 8 9 10 10 11
14 15 15 15 14 14 15 16 16 17 17 18 19 19 19 18 19 18 18 17 16 15 14 14 13 12 13 13 12 10 10 10 10 11 10 9 9 9 8 8 8 7 6 6 7 7 8 8 10 11 10 9 9 8 6 3 3 4 2 2 3 4 6 4 3 4 4 4 4 4 4 3 5 7 7 5 4 6 8 7 7 8 9 9 10
14 14 15 14 14 14 14 15 16 16 16 16 17 18 18 18 19 18 18 17 15 14 13 13 12 11 12 13 12 10 10 10 10 11 11 10 9 9 9 7 6 6 6 5 5 6 8 8 10 11 10 9 8 7 6 3 2 3 3 3 4 4 6 5 3 4 3 4 4 4 4 5 7 8 6 4 4 6 8 7 7 7 8 8 9
14 14 14 13 13 13 14 14 14 14 14 15 15 16 18 18 18 18 18 18 16 15 14 13 12 12 12 12 12 11 10 9 9 10 10 10 9 8 9 8 6 5 5 5 4 6 8 9 10 10 9 8 7 5 5 3 1 3 3 2 3 4 4 4 3 3 3 3 3 3 5 7 8 8 5 5 5 5 6 7 6 6 7 7 8
14 14 13 12 13 13 13 13 13 12 12 13 13 15 16 17 16 17 18 17 17 16 15 13 13 12 12 12 11 12 11 9 9 8 8 9 9 8 8 8 7 6 4 4 3 4 7 8 10 10 9 9 7 6 5 3 1 2 3 2 2 3 2 3 3 2 3 2 2 3 5 7 9 8 6 6 5 4 6 6 6 6 7 7 7
13 13 12 12 12 12 13 12 12 11 11 11 12 13 15 16 15 15 17 17 16 17 16 14 14 12 11 12 11 11 11 10 8 8 8 8 8 7 7 7 6 6 6 4 3 3 7 8 9 10 10 10 9 9 8 5 3 1 2 2 1 2 3 2 3 2 2 2 2 2 5 8 9 7 6 6 5 5 5 5 6 6 6 6 6
11 11 11 11 12 12 12 11 11 10 11 12 11 12 14 15 15 15 16 17 16 16 15 14 14 13 11 10 10 10 10 11 9 7 7 6 6 6 8 7 5 5 5 5 4 3 7 8 9 11 11 11 10 10 8 7 5 3 1 1 1 2 4 3 3 2 2 2 2 2 6 9 7 6 6 6 6 5 4 5 6 5 6 6 6
11 10 9 10 11 11 11 11 11 10 11 11 12 13 14 14 15 15 16 16 17 16 14 13 12 12 11 9 8 8 8 8 9 7 6 6 6 5 7 6 5 5 3 4 5 5 6 8 10 10 10 10 10 9 8 7 6 4 2 1 2 4 4 4 3 2 2 3 2 2 6 9 6 6 6 6 5 3 4 5 5 5 6 5 6
11 10 10 9 10 10 10 11 11 11 10 9 10 12 12 12 13 13 14 13 15 15 13 12 12 11 11 10 8 6 7 6 7 7 5 6 6 5 7 7 6 6 4 3 5 7 5 7 11 11 9 8 8 8 8 7 6 5 3 3 4 4 4 4 4 3 2 3 2 1 6 9 6 5 5 5 4 3 4 4 4 5 6 5 5
11 11 11 10 10 10 10 10 11 11 10 9 9 10 9 9 10 10 11 11 11 13 13 12 12 11 10 10 8 6 6 5 5 5 4 5 5 5 7 8 8 7 6 5 6 8 7 7 10 11 9 8 8 8 8 7 6 5 4 4 4 3 3 5 4 3 2 3 1 1 7 9 6 5 4 4 4 4 4 2 3 5 6 6 5
11 11 11 10 11 10 9 9 10 10 9 9 9 9 9 8 8 8 9 9 9 10 12 12 12 11 9 9 8 7 6 5 4 5 5 5 4 4 5 7 9 9 7 7 7 8 8 8 9 11 11 9 8 8 7 7 7 6 5 4 4 3 4 5 4 3 3 3 2 1 6 8 7 5 4 4 4 5 5 3 3 3 6 8 6
11 11 11 11 10 9 9 8 8 8 8 8 8 8 9 8 8 8 8 8 9 10 11 11 11 10 9 7 7 7 6 5 5 5 5 4 3 4 6 6 7 8 7 7 7 7 8 9 9 11 12 10 9 8 7 7 7 7 6 5 4 4 5 6 5 4 3 3 2 2 4 6 7 5 3 4 3 4 5 4 3 2 4 8 8
10 10 11 10 9 9 8 8 7 7 7 7 7 8 8 8 7 8 8 8 9 9 10 10 9 9 8 7 7 7 6 6 6 6 4 3 3 4 6 7 7 7 7 7 6 6 7 7 8 10 11 11 10 9 8 7 7 8 7 6 6 5 6 7 6 4 4 4 3 2 3 4 6 5 3 3 2 3 5 4 3 2 2 6 8
11 10 10 9 9 9 8 8 7 7 7 6 7 7 7 7 8 8 8 9 10 9 9 9 9 8 8 7 6 6 6 6 7 6 4 4 3 3 5 7 8 8 7 7 6 6 6 6 7 9 9 10 9 9 9 8 7 8 8 8 7 6 6 7 7 5 4 4 3 2 2 3 5 6 4 4 2 2 4 4 4 3 1 3 6
11 11 10 10 10 9 8 8 7 7 6 5 5 5 6 6 7 8 7 9 10 9 9 8 8 9 9 9 9 8 7 7 7 6 4 4 4 4 5 7 8 8 7 6 6 6 6 6 7 8 9 8 8 9 10 10 9 9 9 9 9 8 7 7 7 7 5 4 4 3 2 3 4 6 6 5 4 2 3 4 4 3 1 2 3
12 12 11 10 10 10 9 8 7 6 5 4 3 2 3 4 6 7 7 8 8 9 9 8 7 7 8 9 10 10 9 8 7 6 5 5 5 5 7 9 9 9 8 6 6 6 6 7 8 9 9 8 9 9 9 11 11 10 10 10 10 9 9 9 8 8 7 5 5 5 4 4 4 5 6 6 5 4 3 3 3 3 2 3 3
13 13 12 10 10 10 9 8 7 6 5 4 3 2 2 3 4 5 6 7 7 8 8 7 5 4 5 7 8 9 9 9 8 6 6 7 6 6 8 10 11 11 10 8 5 5 4 5 7 9 9 10 10 9 9 10 11 10 10 10 11 11 10 9 9 8 7 7 6 6 5 5 5 5 5 6 6 6 5 4 4 4 3 3 3
14 14 12 11 11 10 8 8 7 6 5 4 3 3 3 3 3 4 5 6 7 7 7 6 4 4 4 5 5 6 8 8 7 6 7 8 7 7 8 10 12 13 12 9 6 5 4 4 6 8 9 10 9 9 8 8 9 9 9 10 11 12 11 10 10 9 8 7 7 6 6 6 6 6 5 5 6 6 7 5 5 4 4 3 3
14 14 12 11 12 9 7 7 6 5 5 3 2 3 3 3 3 3 4 5 6 6 6 6 5 5 5 4 4 6 7 7 6 5 6 7 6 6 6 10 14 16 13 10 7 6 6 6 7 9 9 9 8 8 8 7 7 7 7 8 10 11 11 11 11 11 9 7 8 7 7 7 7 8 7 6 5 6 7 7 7 6 5 4 3
13 13 12 12 11 10 8 7 6 5 4 2 1 1 2 3 3 3 3 4 5 4 4 5 5 5 4 4 4 5 5 5 4 3 3 4 5 4 5 8 13 15 12 10 9 8 9 7 8 9 8 8 7 6 6 7 7 6 6 6 8 9 10 12 11 11 10 8 8 8 8 8 8 9 9 8 7 6 7 8 9 7 7 6 4
13 13 13 12 11 11 9 8 7 5 3 2 1 1 1 2 3 3 2 2 3 3 2 3 4 5 4 3 3 3 3 2 1 0 1 3 4 4 5 7 10 14 12 10 9 9 9 7 7 8 6 6 6 6 6 6 6 6 6 6 6 7 9 11 12 11 11 10 9 9 9 8 8 9 9 9 9 8 7 7 9 8 8 8 6
12 12 12 12 11 11 10 9 7 6 4 3 2 1 2 2 2 3 2 1 2 3 3 3 3 3 3 3 1 1 1 2 2 2 1 2 3 3 5 5 9 14 14 11 9 8 7 5 6 5 5 5 4 5 5 4 4 4 6 7 6 6 8 10 11 12 11 11 11 9 9 9 9 9 8 8 9 9 7 7 8 9 10 10 9
10 11 12 12 12 12 11 10 8 7 5 5 4 3 3 3 3 3 2 1 1 2 1 2 2 2 2 2 1 1 2 3 3 2 2 0 2 3 4 4 9 14 13 11 10 9 8 6 4 3 2 3 3 3 2 4 5 5 7 8 6 6 7 8 10 11 11 11 11 10 9 9 9 9 9 8 8 8 8 8 8 9 10 11 11
10 11 11 11 11 11 11 10 9 8 7 6 5 4 4 3 3 3 3 2 1 1 0 1 2 2 2 3 2 3 3 3 3 3 2 1 0 2 3 3 8 14 13 11 10 10 10 8 5 3 2 4 5 5 4 4 5 6 8 9 8 7 6 7 8 9 11 11 11 10 10 10 9 9 9 9 9 9 9 9 9 10 11 11 12
10 11 11 11 11 11 11 11 10 9 8 7 6 5 4 3 3 3 3 3 2 1 0 1 1 1 2 2 2 2 2 3 3 2 2 2 1 1 2 2 4 9 11 11 11 10 9 7 6 7 7 8 9 8 7 5 6 7 8 7 9 10 7 6 7 9 10 10 11 11 11 11 10 10 9 9 9 9 9 9 10 12 13 12 11
11 12 11 12 12 11 11 11 10 10 9 8 6 5 5 4 4 4 4 3 3 2 1 1 1 1 2 3 3 3 3 3 3 2 1 1 1 1 2 1 2 5 6 8 11 11 9 7 7 9 9 10 11 10 8 6 5 7 9 8 10 11 9 7 7 8 9 9 10 11 11 12 12 11 11 10 10 10 9 9 9 11 12 13 12
12 13 13 13 13 13 12 12 11 10 9 8 6 5 5 5 4 4 4 4 3 3 2 1 2 3 4 4 4 4 3 3 3 2 1 1 1 2 3 3 3 4 4 4 7 9 10 9 8 10 10 10 12 11 9 6 3 3 5 9 11 11 10 9 9 9 7 8 9 10 11 12 12 13 12 12 11 11 11 10 10 10 10 11 13
13 14 15 14 14 14 13 12 12 11 10 9 7 6 4 4 4 4 4 4 4 3 3 4 4 5 6 5 5 4 3 3 3 3 2 2 1 1 3 4 5 6 6 5 4 6 8 8 7 8 10 11 11 10 9 6 4 2 1 5 7 9 10 9 9 9 5 5 8 9 11 11 12 13 12 13 13 13 13 12 12 11 11 10 11
14 15 15 15 15 15 13 13 13 12 11 9 8 7 6 4 4 5 4 5 5 4 5 5 5 5 6 6 6 6 5 4 4 4 3 3 2 2 3 3 4 5 6 6 4 4 5 6 6 7 8 10 10 9 9 8 6 3 1 1 3 3 5 6 6 7 6 8 10 10 10 11 12 12 11 13 13 13 13 13 13 13 12 12 11
15 16 16 16 16 15 14 14 14 13 11 11 9 8 8 7 6 6 6 6 6 6 6 6 5 5 6 7 7 7 6 6 5 5 4 4 3 3 4 5 5 4 5 5 4 2 2 3 3 5 7 8 8 7 7 9 9 6 3 1 1 1 1 1 2 4 8 9 10 11 8 8 10 9 10 11 11 12 13 13 14 13 13 13 13
16 17 19 18 17 16 16 15 15 13 12 11 10 9 10 9 8 8 8 7 7 6 6 5 5 4 5 6 7 7 7 7 6 6 6 5 5 5 5 5 6 5 5 5 5 3 1 1 0 2 4 4 4 3 3 5 8 9 6 2 1 1 0 0 0 3 7 7 8 11 10 7 6 6 8 9 9 10 11 11 12 12 13 14 14
18 18 20 19 19 17 16 16 15 14 13 12 11 11 11 11 11 10 9 8 7 6 5 5 5 4 5 6 6 7 7 7 8 8 8 7 7 6 6 6 6 6 6 5 5 4 4 3 3 2 2 2 1 2 2 2 4 7 8 6 4 3 1 1 0 1 4 7 7 8 10 9 6 5 5 6 7 8 8 8 9 10 12 13 14
19 19 19 19 19 17 17 17 16 14 14 13 13 12 12 12 12 11 9 8 7 7 6 6 6 5 6 6 7 7 7 8 8 8 8 8 8 8 7 7 7 7 7 6 6 5 5 5 5 5 4 5 4 1 2 1 1 4 6 7 5 4 3 3 2 1 1 4 6 6 8 8 8 8 7 5 6 6 6 6 7 8 9 10 11
20 20 19 20 20 18 19 19 17 16 16 15 15 13 12 12 12 11 10 8 7 8 8 7 7 6 6 6 6 7 7 7 8 8 9 9 9 9 8 8 8 7 7 7 7 6 7 7 7 6 5 5 6 4 3 3 1 1 2 4 3 3 3 3 1 2 2 2 3 4 6 7 9 9 7 5 5 5 6 7 8 9 9 9 10
21 21 20 21 20 19 21 20 18 18 18 18 17 15 13 13 12 12 11 9 7 7 8 7 7 7 7 6 6 6 7 7 8 9 9 10 10 10 10 9 9 8 8 8 8 8 7 7 7 8 8 7 7 5 4 4 4 3 2 2 2 1 2 3 3 0 2 2 2 2 3 6 7 7 6 6 8 8 9 9 10 10 10 10 10
20 20 20 20 21 21 22 21 19 19 19 20 19 16 15 13 12 12 12 11 9 7 7 8 8 7 7 7 6 6 6 7 8 9 10 10 10 10 10 10 10 9 9 9 9 8 8 8 8 8 8 8 8 8 7 5 5 4 4 4 4 4 2 1 2 3 2 3 4 3 4 5 5 6 8 10 11 11 11 12 12 11 11 11 10
20 20 20 21 22 22 22 20 20 19 19 21 21 18 16 15 13 13 13 12 11 9 8 8 8 8 7 7 7 6 7 7 8 9 9 9 9 9 10 10 10 10 9 9 8 8 8 8 8 8 8 8 7 8 7 6 5 4 5 4 5 5 4 3 3 4 3 3 4 5 6 7 8 9 9 9 9 11 14 15 14 13 12 11 10
Wind_Direction
149 147 144 155 154 151 153 153 154 151 152 149 147 146 147 147 148 152 157 161 161 161 160 156 150 151 152 148 141 136 140 144 139 128 129 130 130 133 136 139 140 140 137 139 139 139 137 132 127 124 120 113 108 108 108 110 113 114 117 120 121 121 123 121 117 116 113 109 106 104 102 102 102 103 104 104 101 97 96 94 93 90 94 95 86
148 145 146 154 152 151 152 155 155 151 153 149 148 147 147 145 146 148 152 158 158 160 157 154 150 151 153 150 144 139 140 142 137 130 131 131 130 131 134 136 136 138 140 143 142 142 139 132 129 126 122 117 116 115 110 111 117 121 120 123 129 129 129 124 118 116 112 110 111 108 104 103 103 104 102 102 101 95 92 94 94 91 96 97 89
145 144 145 152 151 151 153 155 155 154 154 149 149 147 146 144 144 146 149 152 153 157 156 156 154 153 154 151 146 140 139 137 129 125 129 129 131 134 138 140 138 141 144 146 142 140 136 132 129 125 121 119 119 117 116 117 120 124 122 122 127 126 125 123 119 119 117 116 112 105 101 100 101 102 101 101 99 95 96 101 101 95 96 93 90
142 141 145 150 150 152 154 156 155 156 153 150 149 146 145 142 142 144 146 147 146 149 154 157 155 155 154 147 143 139 136 132 128 130 132 131 133 135 141 144 144 146 148 147 140 137 133 132 132 126 122 123 121 122 123 123 127 128 129 126 126 126 125 125 124 124 122 119 106 98 100 100 98 100 103 100 95 95 98 107 105 97 96 92 90
139 140 146 147 149 154 155 156 157 157 153 150 149 146 144 141 142 142 144 145 144 144 147 152 152 153 149 145 142 139 135 132 134 135 134 134 133 133 136 140 145 149 150 147 142 139 137 139 136 130 128 129 126 126 126 128 134 134 133 129 135 134 128 134 129 128 127 116 100 97 107 106 103 99 99 98 92 90 91 97 98 95 95 92 91
136 138 144 146 149 154 156 157 158 157 153 151 149 146 144 142 141 140 142 145 147 146 145 147 149 149 146 145 142 139 137 135 135 134 133 134 132 130 131 134 140 144 145 145 144 143 144 146 139 135 136 134 129 128 128 130 140 147 143 135 144 139 132 142 138 144 124 95 86 98 111 107 108 102 94 96 95 93 92 92 92 94 91 87 87
135 136 142 147 149 153 156 158 158 156 154 152 150 147 146 144 141 140 141 144 148 149 148 147 148 147 144 143 140 139 137 135 133 131 132 132 133 132 132 134 137 138 141 144 144 146 148 148 143 141 140 139 134 133 131 129 138 153 154 149 154 148 144 147 155 155 108 76 78 104 111 109 110 108 103 102 101 98 97 98 96 96 91 89 87
135 136 142 145 149 153 157 159 158 156 154 154 151 149 148 145 142 141 141 143 146 148 148 147 146 144 141 140 139 139 137 138 136 135 134 133 137 138 136 137 138 137 139 142 143 147 149 150 147 144 143 143 139 138 137 136 143 148 157 163 166 169 167 154 156 128 85 70 99 99 106 109 110 111 112 108 104 99 98 97 94 96 94 93 90
136 137 142 142 149 153 155 158 159 157 155 155 154 152 150 147 144 142 141 143 146 148 149 149 148 146 144 143 142 143 143 145 145 144 142 141 144 143 141 142 143 137 139 141 144 148 149 149 146 146 144 142 140 143 144 149 156 155 163 168 171 179 182 185 146 103 72 84 109 99 114 112 114 115 117 114 109 104 99 95 93 95 94 96 97
134 136 140 142 149 151 153 156 158 158 156 156 157 155 152 149 146 144 143 143 146 150 152 152 152 150 148 147 148 150 149 150 154 153 148 146 145 147 145 147 146 136 141 142 145 148 147 147 145 146 142 139 145 150 151 156 159 159 165 170 180 188 197 207 123 96 71 131 111 105 125 118 115 122 132 127 117 107 109 115 109 101 96 98 99
131 131 133 140 148 150 154 156 157 158 157 158 159 157 154 152 149 147 146 145 147 150 152 153 153 152 149 149 151 152 154 156 160 159 153 150 147 151 149 149 148 137 142 144 147 149 147 148 145 146 144 145 150 150 150 151 156 161 168 180 193 198 213 176 120 130 138 135 104 107 125 111 111 133 141 122 111 103 105 110 105 101 97 95 94
130 130 129 135 145 151 153 156 158 159 159 161 161 159 158 156 153 150 150 149 149 151 153 152 151 151 150 151 152 154 159 162 167 167 159 152 148 155 153 147 145 139 142 147 150 150 151 153 152 151 151 154 153 151 146 141 147 155 168 189 196 199 203 131 124 171 145 136 111 123 130 104 116 136 121 104 104 102 101 101 99 100 96 92 93
129 130 131 132 141 149 151 155 159 160 159 161 161 161 161 160 157 154 154 154 152 153 153 151 150 149 151 152 156 159 161 169 174 174 162 152 146 150 152 145 146 143 142 150 151 154 160 162 161 158 155 157 155 152 145 138 131 127 156 192 192 192 155 122 126 164 149 147 130 142 144 117 127 117 110 106 100 99 101 102 101 101 95 93 94
129 129 133 134 138 145 149 155 160 160 160 161 159 160 164 163 162 159 158 158 156 155 152 150 150 151 153 153 156 157 160 173 177 173 165 152 142 141 148 148 150 146 144 150 155 162 167 165 161 160 163 160 155 152 145 134 110 75 44 185 184 164 135 116 125 155 154 157 146 161 148 136 141 122 118 113 103 100 101 103 104 103 99 97 97
128 129 133 135 136 141 147 152 158 161 163 163 158 159 163 166 166 164 162 161 161 158 153 151 152 152 153 151 150 150 154 170 174 171 167 154 144 140 145 149 149 147 149 154 164 171 166 160 159 162 167 161 155 155 148 120 76 35 21 169 173 157 147 131 137 150 155 162 155 170 152 149 159 136 120 120 127 114 107 110 110 108 105 103 102
126 129 131 133 133 136 144 149 155 160 165 164 161 161 161 167 170 169 166 162 163 160 155 153 154 153 151 148 145 145 147 158 166 168 167 155 148 147 149 154 151 151 155 164 178 175 162 160 163 164 163 161 160 164 163 132 50 27 48 162 168 155 152 143 153 152 159 165 158 165 160 161 148 137 135 144 159 127 118 117 114 113 109 107 105
126 128 128 132 134 134 138 144 151 155 161 163 164 163 160 166 171 173 168 162 163 161 160 160 160 160 155 150 145 143 141 147 155 158 160 152 150 152 153 157 155 157 162 172 189 174 167 169 165 163 163 166 170 171 170 155 65 36 57 141 161 153 137 122 141 153 153 156 159 159 158 167 144 142 158 156 142 125 122 119 116 117 113 112 109
130 130 128 132 136 137 136 139 145 148 155 161 166 166 164 168 173 175 171 165 163 163 168 168 169 169 166 160 151 148 145 143 145 148 151 146 151 154 150 155 155 163 172 174 189 179 175 176 170 165 166 171 175 176 171 156 108 65 67 110 156 162 133 112 135 150 136 142 157 144 159 179 154 148 160 142 133 126 124 123 123 123 119 115 110
132 131 131 135 139 138 137 140 143 146 152 158 163 166 169 170 174 177 174 172 168 169 173 173 173 174 177 173 163 155 150 143 140 144 149 147 154 158 154 158 157 162 179 190 200 190 183 184 182 181 180 178 183 192 193 191 161 92 84 93 149 166 144 128 153 149 127 138 140 134 169 170 147 147 150 141 142 128 130 131 129 129 125 118 112
134 135 136 139 143 138 138 144 145 149 150 157 164 164 167 171 177 180 180 180 176 175 177 179 175 177 184 183 174 161 151 144 137 141 150 154 160 167 169 166 168 171 175 196 220 206 195 197 198 198 196 190 193 201 207 206 196 159 109 97 79 178 182 171 171 152 125 130 117 144 173 151 140 152 152 148 143 133 140 135 133 135 129 125 120
137 138 138 140 144 139 139 141 145 149 146 153 160 163 168 173 177 182 186 187 186 183 182 185 180 181 188 191 185 165 158 154 149 155 158 168 176 175 179 176 187 190 176 195 223 220 201 200 202 202 202 200 200 203 213 210 197 201 173 110 324 207 191 179 174 157 127 117 118 171 167 145 142 155 149 147 143 142 145 130 135 139 134 132 125
139 137 137 141 141 140 144 141 142 147 147 148 151 160 170 175 175 178 187 190 192 191 185 186 184 187 189 192 191 176 185 178 161 171 176 183 190 182 189 194 201 205 188 195 217 224 205 195 198 200 201 202 200 200 208 209 203 205 216 250 244 213 187 175 184 171 143 116 117 197 157 141 143 150 147 150 150 150 143 138 147 143 137 138 130
143 143 144 148 144 144 150 146 144 145 146 144 144 155 164 169 168 169 178 184 192 193 189 188 191 197 193 185 190 196 218 212 169 173 183 190 204 207 211 216 211 214 215 191 205 220 211 193 194 194 195 194 191 196 201 199 202 204 220 237 220 215 186 176 187 175 159 125 122 190 147 141 140 147 154 155 159 153 145 152 156 147 143 140 134
148 150 150 154 150 148 153 152 152 149 148 145 143 149 156 161 159 156 165 174 185 191 194 197 201 207 199 187 194 209 219 218 193 193 200 201 216 221 222 225 219 222 221 200 204 214 207 195 192 188 187 188 189 199 205 198 198 200 215 227 217 219 194 188 190 179 158 135 139 135 140 142 138 150 163 161 165 159 159 163 152 150 149 144 141
154 155 153 158 158 154 156 157 157 156 153 153 154 153 155 158 155 154 159 169 179 186 193 197 201 204 201 196 200 209 211 209 211 219 223 219 220 223 229 230 225 227 224 210 208 205 194 190 189 187 189 194 197 198 200 201 202 204 210 220 220 221 207 199 195 187 161 148 175 138 140 142 138 154 170 166 169 162 164 164 164 159 146 149 149
160 161 162 165 164 161 158 160 162 162 160 160 164 162 164 161 155 157 159 167 178 186 191 193 196 197 199 203 199 203 211 213 222 231 236 234 236 247 239 231 233 235 230 218 209 199 191 187 186 192 198 199 202 200 196 201 208 214 213 215 223 219 212 206 199 196 182 170 188 177 152 144 140 152 165 171 174 159 165 165 175 173 135 153 155
165 164 165 165 165 165 160 161 164 165 166 168 170 170 175 171 160 161 167 173 181 192 196 194 197 197 198 201 199 203 215 223 230 235 239 236 250 269 244 226 233 234 232 224 211 206 206 200 192 197 206 206 206 207 203 200 207 220 220 219 226 224 217 212 204 199 193 186 198 199 180 160 147 148 162 183 186 149 164 169 174 187 126 152 157
164 162 161 161 166 168 164 163 161 162 167 174 176 176 178 176 170 167 175 180 182 197 203 200 203 203 202 204 204 209 221 231 235 235 230 227 247 275 237 221 228 227 228 227 219 220 222 220 206 199 206 209 208 212 214 207 201 213 222 225 227 226 224 220 213 206 200 194 207 211 187 181 157 151 168 189 193 132 156 167 174 198 167 138 148
162 159 160 163 167 166 166 165 159 158 162 170 179 183 177 178 178 173 176 179 183 198 204 203 205 206 207 211 213 215 226 238 238 234 230 233 249 256 218 214 226 224 224 226 224 231 234 231 218 205 199 197 202 212 221 218 208 207 217 228 230 229 225 222 219 212 207 200 207 213 184 190 173 157 164 181 193 157 146 169 178 198 203 150 152
164 162 163 164 164 165 168 167 162 163 163 168 181 191 186 192 186 176 176 179 185 194 197 203 207 207 211 219 222 220 228 242 241 236 243 250 255 251 224 215 220 219 216 215 228 241 242 237 222 209 199 196 202 208 220 226 222 214 214 224 230 231 227 222 221 216 215 211 208 210 190 182 185 170 165 175 194 191 171 168 174 191 194 177 191
164 164 165 164 166 167 168 169 169 169 176 180 181 189 203 217 204 187 185 187 190 191 195 203 202 197 199 215 225 224 230 240 241 240 254 262 262 259 243 228 219 218 213 202 219 238 237 236 218 206 201 202 203 202 214 229 230 225 218 222 226 228 227 224 222 219 221 221 218 217 207 189 187 186 173 171 183 194 196 181 172 187 194 186 201
165 165 166 164 168 171 167 169 171 176 194 198 183 192 204 213 218 206 194 190 195 197 198 195 190 194 194 201 218 232 235 239 246 251 260 269 270 261 256 242 220 213 214 200 201 219 215 214 201 198 201 197 194 195 208 229 237 233 226 226 228 228 226 225 225 224 225 228 231 230 225 214 199 193 187 180 173 183 200 200 190 190 200 208 196
164 166 166 164 169 174 168 170 179 184 203 219 200 200 196 195 205 209 198 191 199 203 203 198 193 205 205 192 209 246 249 248 254 254 255 266 270 259 260 253 222 208 210 199 191 200 194 192 186 184 189 187 182 190 203 221 237 237 230 230 232 233 230 228 229 230 231 232 239 242 237 230 220 209 200 196 185 183 192 198 209 208 203 224 217
159 166 168 166 169 172 171 176 185 188 198 217 223 202 185 180 183 189 200 203 201 192 201 210 204 206 200 177 196 234 245 248 253 243 244 260 273 265 258 256 221 203 205 200 194 191 182 181 178 172 178 184 182 194 208 220 235 238 233 231 229 232 233 233 232 233 235 238 244 250 247 240 234 228 218 209 203 198 198 196 207 217 214 225 224
161 167 169 170 171 172 173 174 182 186 184 189 194 167 143 157 163 159 164 200 202 170 147 183 191 197 197 186 204 231 250 271 290 267 257 267 277 265 244 242 211 198 203 202 195 188 184 176 163 164 176 189 200 217 223 228 241 243 239 237 229 227 229 233 235 235 237 242 247 249 249 248 244 239 234 228 215 202 206 208 208 213 218 224 217
166 167 167 171 173 173 174 170 178 179 169 169 157 130 124 130 129 126 125 130 202 185 145 147 153 166 185 193 226 268 294 335 18 35 48 269 272 251 233 221 196 199 204 202 194 180 181 171 151 158 174 189 224 234 228 256 279 276 264 249 230 226 232 234 234 237 239 242 246 248 248 249 249 248 245 244 234 213 206 215 221 220 220 225 220
173 171 170 173 173 172 172 168 172 169 163 162 153 147 140 134 124 116 117 115 183 198 179 180 161 129 143 153 116 58 33 32 36 44 67 294 262 241 232 203 198 206 202 193 189 180 176 173 158 146 149 182 243 264 277 322 317 313 304 284 253 232 237 240 233 234 236 237 240 243 245 246 248 251 249 250 249 235 219 212 221 230 231 233 232
176 178 176 176 174 170 171 168 165 160 158 159 158 156 147 144 142 128 124 125 126 136 164 179 171 152 118 111 89 69 55 53 53 58 64 59 177 230 225 196 205 211 204 188 184 188 191 191 190 199 232 235 251 270 281 313 320 316 314 306 288 258 239 240 236 232 232 232 234 238 243 245 246 247 249 251 251 248 238 224 219 225 230 234 238
178 181 179 178 176 171 169 167 162 160 158 162 166 165 165 169 163 153 145 142 132 117 115 131 159 168 108 89 70 60 49 51 56 63 69 75 97 216 223 195 191 197 200 200 199 203 204 202 209 226 244 254 256 259 259 274 302 308 313 306 287 276 261 246 240 233 231 235 237 241 245 245 244 243 245 248 248 248 244 237 229 228 229 227 229
181 182 181 180 179 175 170 166 164 163 161 166 176 180 179 175 172 169 156 146 132 116 91 47 64 70 69 66 60 49 37 41 39 44 71 98 115 167 203 190 145 157 175 200 213 217 218 216 222 232 241 251 253 248 244 253 283 304 315 309 289 283 280 277 271 249 236 243 250 250 251 250 248 245 244 244 245 245 240 239 236 234 237 233 226
179 182 183 183 183 179 172 168 166 167 167 171 177 183 177 168 171 173 156 146 137 132 128 93 69 71 69 66 60 46 40 44 33 39 57 86 147 162 160 156 161 169 165 179 209 218 225 229 233 239 238 237 240 238 233 229 242 281 314 315 302 292 282 276 279 269 249 250 261 263 260 258 255 248 244 242 241 241 238 236 235 235 239 237 229
180 183 184 184 183 180 174 170 168 170 175 175 173 179 179 166 162 159 149 139 129 121 117 107 99 89 79 69 61 55 58 62 55 59 61 53 75 135 130 144 159 170 171 172 191 207 220 225 228 236 234 227 226 228 227 208 191 215 307 321 305 294 281 268 265 269 270 274 285 285 275 268 260 252 248 245 240 238 238 236 235 235 236 238 235
182 182 183 181 179 179 176 173 172 173 179 181 175 172 168 152 142 140 131 125 117 100 97 104 105 95 81 71 69 69 71 72 68 68 68 63 58 64 73 97 127 146 156 161 175 200 216 212 207 222 226 219 213 216 218 200 191 198 161 294 286 291 283 275 264 273 309 319 307 295 282 274 266 256 249 246 242 240 241 239 237 236 236 239 241
182 179 180 179 179 180 178 175 174 174 181 184 176 165 160 151 137 131 122 117 120 113 109 110 107 95 81 75 75 72 70 69 68 70 78 81 78 77 73 73 79 100 124 124 120 146 216 206 204 218 220 215 209 211 213 204 207 207 173 189 259 261 269 276 263 290 311 315 305 301 299 287 275 264 250 245 246 246 245 244 241 239 239 240 240
183 180 179 179 178 180 179 176 173 174 182 185 177 166 161 156 145 139 133 127 132 135 133 126 117 103 86 81 81 74 70 70 69 71 80 88 90 86 83 83 77 77 88 95 96 92 83 81 220 209 200 204 207 215 220 214 218 216 208 202 226 245 288 64 151 295 282 274 292 302 299 293 286 270 252 247 249 250 247 245 240 238 239 240 240
186 181 180 180 179 179 178 174 171 174 182 187 184 174 165 162 157 154 152 149 149 148 140 130 121 103 88 88 87 82 80 79 77 78 82 88 92 91 87 87 85 79 80 86 93 90 79 63 30 39 71 67 143 207 210 218 221 216 223 231 232 236 166 147 227 293 254 252 274 290 287 289 297 292 267 250 248 248 247 247 239 236 239 239 240
186 179 178 178 177 175 174 173 171 174 182 188 190 182 174 172 169 166 162 161 155 140 131 123 120 110 96 95 93 90 89 87 85 84 87 89 91 91 88 87 87 86 85 86 89 85 79 76 59 51 50 45 48 104 147 124 236 216 224 233 234 238 212 203 230 229 240 249 252 274 293 298 301 299 285 263 255 251 249 251 242 236 237 237 238
183 176 174 175 175 174 176 176 173 176 183 190 193 190 183 179 178 172 167 167 155 136 135 131 126 121 109 101 99 95 91 88 89 91 93 93 92 89 86 85 85 85 88 88 87 86 83 81 76 70 68 62 57 65 87 75 53 168 204 231 220 203 198 188 210 241 253 254 237 265 302 312 311 301 287 275 270 261 257 253 248 248 245 240 239
181 177 174 172 171 175 180 179 177 180 184 190 194 195 191 185 183 176 169 169 160 145 146 143 136 132 124 115 110 105 96 90 92 97 99 96 92 89 86 84 82 80 84 87 87 89 88 84 80 78 79 79 72 68 68 55 42 42 27 327 302 257 181 140 106 313 259 265 261 249 281 303 302 285 272 278 275 265 261 255 252 255 251 245 242
181 176 171 170 172 177 182 181 181 182 186 191 195 198 196 191 188 180 172 170 166 162 157 150 150 148 140 134 128 123 114 104 103 105 105 100 95 91 88 85 84 82 83 86 89 89 89 88 85 83 82 82 79 75 71 61 49 34 20 5 353 347 322 175 67 15 338 288 288 282 282 287 280 267 265 269 270 267 264 257 252 253 250 242 239
177 173 168 171 174 179 181 180 183 186 188 192 196 199 200 198 195 187 179 175 173 175 172 165 165 164 158 152 146 141 133 126 122 118 114 108 101 95 92 89 87 85 84 84 86 88 89 90 88 86 84 81 80 79 73 67 61 46 32 21 11 10 357 346 7 1 341 316 307 298 298 296 288 284 277 269 268 269 267 261 253 251 250 244 240